Location: Mountain_View
(35.6670°N, 81.4000°W)
Time: 11:23:55
(UTC-05:00)

ISS - Pass Details

Date: 21 November 2019
Orbit: 411 x 421 km, 51.6° (Epoch: 12 December)

Event Time Altitude Azimuth Distance (km) Brightness Sun altitude
Rises 19:22:52 0° 253° (WSW) 2,346 1.3 -25.7°
Reaches altitude 10° 19:25:09 10° 266° (W) 1,488 0.0 -26.1°
Enters shadow 19:27:00 23° 294° (WNW) 949 -1.4 -26.5°
